Home   Weather   Korneuburg   Past weeks

Flag for Austria Past Weather in Korneuburg, Lower Austria, Austria — Yesterday and Last 2 Weeks

Now
27 °F

Clear.


Feels Like: 27 °F
Forecast: 21 / 34 °F
Wind: 2 mph from Northeast

Location: Wien / Hohe Warte

Current Time: Dec 4, 2016 at 9:23:24 pm

Latest Report: Dec 4, 2016 at 8:00 pm


Visibility: 4 mi

Pressure: 30.50 "Hg

Humidity: 94%

Dew Point: 26 °F

Location of KorneuburgLocation

Past Weather in Korneuburg — Graph

°F

Korneuburg Temperature Yesterday

Maximum temperature yesterday: 39 °F (at 2:00 pm)
Minimum temperature yesterday: 28 °F (at 11:00 pm)
Average temperature yesterday: 33 °F

High & Low Weather Summary for the Past Weeks

 TemperatureHumidityPressure
High64 °F (Nov 22, 1:00 pm)98% (Nov 25, 1:00 am)30.56 "Hg (Nov 25, 1:00 am)
Low24 °F (Dec 4, 6:00 am)41% (Nov 30, 12:00 pm)29.80 "Hg (Dec 2, 7:00 am)
Average42 °F78%30.15 "Hg
* Reported Nov 19 9:00 pm — Dec 4 8:00 pm, Korneuburg, Weather by CustomWeather, © 2016

Note: Actual official high and low records may vary slightly from our data, if they occured in-between our weather recording intervals... More about our weather records

Advertising

Korneuburg Weather History for the Previous 24 Hours

Scroll right to see more
 ConditionsComfort  
Time TempWeatherWind HumidityBarometerVisibility
8:00 pm
Sun, Dec 4
27 °FClear.2 mph94%30.50 "Hg4 mi
7:00 pm28 °FClear.1 mph94%30.50 "Hg4 mi
6:00 pm28 °FChilly.1 mph91%30.49 "HgN/A
5:00 pm30 °FPassing clouds.2 mph90%30.47 "Hg8 mi
4:00 pm31 °FChilly.2 mph86%30.46 "HgN/A
3:00 pm32 °FScattered clouds.2 mph83%30.46 "Hg11 mi
2:00 pm33 °FPartly sunny.2 mph79%30.45 "Hg11 mi
1:00 pm32 °FOvercast.2 mph82%30.45 "Hg9 mi
12:00 pm30 °FOvercast.1 mph84%30.46 "Hg7 mi
11:00 am29 °FOvercast.1 mph87%30.46 "Hg8 mi
10:00 am27 °FOvercast.1 mph90%30.47 "Hg7 mi
9:00 am26 °FOvercast.1 mph93%30.46 "Hg5 mi
8:00 am25 °FPartly sunny.2 mph93%30.45 "Hg8 mi
7:00 am24 °FPassing clouds.2 mph93%30.43 "Hg8 mi
6:00 am24 °FPassing clouds.1 mph94%30.43 "Hg9 mi
5:00 am24 °FCold.No wind93%30.42 "HgN/A
4:00 am25 °FCold.1 mph92%30.42 "HgN/A
3:00 am26 °FChilly.No wind90%30.42 "HgN/A
2:00 am26 °FChilly.No wind89%30.42 "HgN/A
1:00 am26 °FPassing clouds.No wind89%30.41 "Hg11 mi
12:00 am27 °FChilly.1 mph88%30.40 "HgN/A
11:00 pm
Sat, Dec 3
28 °FChilly.2 mph86%30.40 "HgN/A
10:00 pm28 °FPassing clouds.1 mph86%30.39 "Hg12 mi
9:00 pm29 °FPassing clouds.1 mph86%30.38 "Hg16 mi
Weather by CustomWeather, © 2016

See weather overviewHow to use our weather pages